User: anonymous   Login
Location: Unspecified
(0.0000°N, 0.0000°E)
Time: 20:38:57
(UTC+00:00)
Language:

CANX 3B (BRITE-ASRA) - Orbit

View from above orbital plane
View from above orbital plane
View from above satellite
View from above satellite

Ground track
Ground track

The orbit data is extracted from the following two-line orbital elements,

1 39091U 13009F   17352.03917988  .00000016  00000-0  20917-4 0  9998
2 39091  98.5317 194.9265 0011460 119.6728 240.5600 14.35053955251868
Epoch (UTC): 18 December 2017 00:56:25
Eccentricity: 0.0011460
inclination: 98.5317°
perigee height: 766 km
apogee height: 783 km
right ascension of ascending node: 194.9265°
argument of perigee: 119.6728°
revolutions per day: 14.35053955
mean anomaly at epoch: 240.5600°
orbit number at epoch: 25186

The dashed part of the orbit path shows where the satellite is in the earth's shadow,  

DLR